Starlink 6350

operational
NORAD ID: 57226 Int'l Des: 2023-094 Owner: SPXS Country: US Constellation: starlink
LEOCIRCULAR

About Starlink 6350

Description loading...

Live Position

Loading 3D Globe...

Upcoming Passes

Altitude History

Altitude vs Time

uPlot chart will show altitude changes over time

Two-Line Element Set

1 57226U 23094J 25315.05543203 -.00003939 00000-0 -27648-3 0 9994
2 57226 43.0041 315.0100 0001274 273.1898 86.8798 15.02567482129275
Epoch: Nov 11, 2025 • Age: 20 hours

Current Status

Altitude 563.0 km
Velocity 7.59 km/s
Sub-Earth Point 43.03°N, 41.4°E
Launch Date Jul 7, 2023
Age 2.3 years
Type internet

Technical Details

Classification Payload
Mass 305.00 kg
Dry Mass 290.00 kg
Total Mass 305.00 kg
Length 0.20 m
Diameter 2.80 m
Span 9.00 m
Shape Box + pan
Manufacturer SPXS
Bus Type Starlink
Phase Status In Orbit
Owner/State SPXS/US

Large Constellations

Loading constellations...